SWT5572 EDDP-LKMT

Flight info

Callsign SWT5572
Flight time 0h 52m
Altitude 35000
Route DRN2E DRN Z21 OMELO DCT EVIKU DCT BNO DCT UPLAV UPLAV3W
Aircraft B738/M-SDE2E3FGHIRWXY/LB1

Departure

Time 2026-04-15 12:10
Airport Leipzig/Halle Airport (EDDP)

Arrival

Time 2026-04-15 13:02
Airport Leoš Janáček Airport Ostrava (LKMT)
Time Latitude Longitude Altitude Speed Heading
2026-04-15 11:43 51.40764 12.23561 490 ft 0 kts 266°
2026-04-15 11:56 51.40765 12.23583 463 ft 2 kts 266°
2026-04-15 11:56 51.40766 12.23607 463 ft 2 kts 266°
2026-04-15 11:56 51.40768 12.23631 463 ft 2 kts 266°
2026-04-15 11:57 51.40766 12.23655 463 ft 2 kts 294°
2026-04-15 11:57 51.40744 12.23685 459 ft 2 kts 351°
2026-04-15 11:57 51.40742 12.23685 462 ft 0 kts 351°
2026-04-15 12:02 51.40756 12.23682 458 ft 4 kts 352°
2026-04-15 12:02 51.40784 12.23677 461 ft 7 kts 354°
2026-04-15 12:02 51.40864 12.23667 465 ft 10 kts 356°
2026-04-15 12:03 51.40934 12.23660 467 ft 10 kts 356°
2026-04-15 12:03 51.41005 12.23652 465 ft 10 kts 354°
2026-04-15 12:03 51.41047 12.23578 468 ft 10 kts 272°
2026-04-15 12:03 51.41044 12.23490 467 ft 13 kts 265°
2026-04-15 12:04 51.41036 12.23329 470 ft 16 kts 265°
2026-04-15 12:04 51.41028 12.23162 471 ft 15 kts 266°
2026-04-15 12:04 51.41020 12.22994 467 ft 16 kts 265°
2026-04-15 12:04 51.41011 12.22814 466 ft 16 kts 265°
2026-04-15 12:05 51.41002 12.22638 465 ft 16 kts 265°
2026-04-15 12:05 51.40993 12.22461 461 ft 14 kts 265°
2026-04-15 12:05 51.41002 12.22341 459 ft 10 kts 305°
2026-04-15 12:05 51.41062 12.22282 459 ft 10 kts 306°
2026-04-15 12:06 51.41069 12.22171 459 ft 10 kts 266°
2026-04-15 12:06 51.41064 12.22062 458 ft 10 kts 266°
2026-04-15 12:06 51.41059 12.21949 458 ft 11 kts 266°
2026-04-15 12:06 51.41054 12.21824 459 ft 11 kts 266°
2026-04-15 12:07 51.41047 12.21697 459 ft 13 kts 265°
2026-04-15 12:07 51.41038 12.21522 454 ft 19 kts 265°
2026-04-15 12:07 51.41027 12.21287 450 ft 18 kts 266°
2026-04-15 12:07 51.41019 12.21094 446 ft 19 kts 266°
2026-04-15 12:08 51.41009 12.20885 440 ft 15 kts 265°
2026-04-15 12:08 51.41001 12.20724 428 ft 14 kts 265°
2026-04-15 12:08 51.40995 12.20565 433 ft 10 kts 273°
2026-04-15 12:08 51.41035 12.20489 429 ft 10 kts 346°
2026-04-15 12:09 51.41100 12.20503 433 ft 9 kts 14°
2026-04-15 12:09 51.41155 12.20550 435 ft 9 kts 51°
2026-04-15 12:09 51.41170 12.20646 438 ft 10 kts 84°
2026-04-15 12:09 51.41190 12.21063 438 ft 73 kts 86°
2026-04-15 12:10 51.41244 12.22244 459 ft 136 kts 85°
2026-04-15 12:10 51.41322 12.23912 882 ft 154 kts 85°
2026-04-15 12:10 51.41404 12.25649 1630 ft 159 kts 86°
2026-04-15 12:10 51.41485 12.27414 2450 ft 159 kts 86°
2026-04-15 12:11 51.41571 12.29305 2899 ft 185 kts 85°
2026-04-15 12:11 51.41672 12.31527 3170 ft 212 kts 85°
2026-04-15 12:11 51.41784 12.33987 3523 ft 229 kts 86°
2026-04-15 12:11 51.41907 12.36673 3803 ft 251 kts 86°
2026-04-15 12:12 51.42037 12.39509 4550 ft 258 kts 86°
2026-04-15 12:12 51.42171 12.42418 5330 ft 265 kts 86°
2026-04-15 12:12 51.42306 12.45360 6081 ft 271 kts 86°
2026-04-15 12:12 51.42445 12.48410 6860 ft 277 kts 86°
2026-04-15 12:13 51.42586 12.51514 7630 ft 281 kts 86°
2026-04-15 12:13 51.42712 12.54663 8397 ft 286 kts 91°
2026-04-15 12:13 51.42319 12.57796 9161 ft 289 kts 113°
2026-04-15 12:13 51.41368 12.60648 9936 ft 293 kts 122°
2026-04-15 12:14 51.40266 12.63430 10582 ft 301 kts 124°
2026-04-15 12:14 51.39075 12.66349 10773 ft 325 kts 124°
2026-04-15 12:14 51.37801 12.69472 11112 ft 342 kts 124°
2026-04-15 12:14 51.36490 12.72707 11739 ft 349 kts 123°
2026-04-15 12:15 51.35172 12.75985 12471 ft 352 kts 123°
2026-04-15 12:15 51.33839 12.79312 13235 ft 357 kts 123°
2026-04-15 12:15 51.32492 12.82683 13985 ft 361 kts 123°
2026-04-15 12:15 51.31129 12.86094 14661 ft 366 kts 123°
2026-04-15 12:16 51.29754 12.89536 15391 ft 369 kts 123°
2026-04-15 12:16 51.28365 12.93009 16136 ft 373 kts 123°
2026-04-15 12:16 51.26981 12.96467 16851 ft 376 kts 123°
2026-04-15 12:16 51.25561 13.00008 17558 ft 381 kts 123°
2026-04-15 12:17 51.24121 13.03593 18273 ft 385 kts 123°
2026-04-15 12:17 51.22668 13.07206 18909 ft 389 kts 123°
2026-04-15 12:17 51.21199 13.10854 19507 ft 393 kts 123°
2026-04-15 12:17 51.19715 13.14539 20092 ft 397 kts 123°
2026-04-15 12:18 51.18213 13.18260 20671 ft 401 kts 123°
2026-04-15 12:18 51.16692 13.22026 21248 ft 405 kts 123°
2026-04-15 12:18 51.15173 13.25836 21813 ft 409 kts 122°
2026-04-15 12:18 51.13651 13.29686 22371 ft 413 kts 122°
2026-04-15 12:19 51.12112 13.33579 22914 ft 417 kts 122°
2026-04-15 12:19 51.10555 13.37506 23461 ft 421 kts 122°
2026-04-15 12:19 51.08978 13.41469 23971 ft 425 kts 122°
2026-04-15 12:19 51.07387 13.45460 24417 ft 429 kts 122°
2026-04-15 12:20 51.05779 13.49481 24902 ft 431 kts 121°
2026-04-15 12:20 51.04166 13.53513 25363 ft 434 kts 121°
2026-04-15 12:20 51.02540 13.57570 25805 ft 437 kts 121°
2026-04-15 12:20 51.00921 13.61606 26239 ft 440 kts 121°
2026-04-15 12:21 50.99278 13.65712 26660 ft 442 kts 121°
2026-04-15 12:21 50.97619 13.69857 27086 ft 445 kts 120°
2026-04-15 12:21 50.95954 13.74015 27508 ft 448 kts 120°
2026-04-15 12:21 50.94276 13.78195 27907 ft 451 kts 120°
2026-04-15 12:22 50.92556 13.82365 28315 ft 454 kts 123°
2026-04-15 12:22 50.90654 13.86384 28720 ft 457 kts 126°
2026-04-15 12:22 50.88661 13.90325 29106 ft 460 kts 126°
2026-04-15 12:22 50.86662 13.94293 29495 ft 462 kts 126°
2026-04-15 12:23 50.84677 13.98297 29993 ft 461 kts 126°
2026-04-15 12:23 50.82580 14.02055 30503 ft 461 kts 133°
2026-04-15 12:23 50.80232 14.05525 30865 ft 463 kts 135°
2026-04-15 12:23 50.77823 14.08956 31042 ft 469 kts 135°
2026-04-15 12:24 50.75374 14.12409 31207 ft 474 kts 135°
2026-04-15 12:24 50.72899 14.15907 31423 ft 478 kts 135°
2026-04-15 12:24 50.70417 14.19435 31718 ft 480 kts 135°
2026-04-15 12:24 50.67943 14.22969 32079 ft 480 kts 134°
2026-04-15 12:25 50.65468 14.26511 32439 ft 480 kts 134°
2026-04-15 12:25 50.62992 14.30059 32720 ft 482 kts 134°
2026-04-15 12:25 50.60501 14.33624 33006 ft 483 kts 134°
2026-04-15 12:25 50.58008 14.37184 33307 ft 484 kts 134°
2026-04-15 12:26 50.55539 14.40704 33608 ft 485 kts 133°
2026-04-15 12:26 50.53032 14.44270 33901 ft 487 kts 133°
2026-04-15 12:26 50.50515 14.47846 34207 ft 488 kts 133°
2026-04-15 12:26 50.47999 14.51415 34535 ft 486 kts 133°
2026-04-15 12:27 50.45516 14.55006 34945 ft 481 kts 130°
2026-04-15 12:27 50.43204 14.58769 35274 ft 479 kts 128°
2026-04-15 12:27 50.40944 14.62630 35240 ft 482 kts 127°
2026-04-15 12:28 50.36474 14.70414 35248 ft 477 kts 127°
2026-04-15 12:28 50.32035 14.78064 35264 ft 473 kts 128°
2026-04-15 12:29 50.27580 14.85645 35252 ft 473 kts 128°
2026-04-15 12:29 50.23102 14.93209 35255 ft 473 kts 128°
2026-04-15 12:30 50.18648 15.00706 35257 ft 473 kts 128°
2026-04-15 12:30 50.14163 15.08236 35264 ft 473 kts 128°
2026-04-15 12:31 50.09677 15.15745 35250 ft 473 kts 128°
2026-04-15 12:31 50.05186 15.23234 35256 ft 473 kts 129°
2026-04-15 12:32 50.00689 15.30701 35256 ft 473 kts 129°
2026-04-15 12:32 49.96192 15.38161 35260 ft 472 kts 129°
2026-04-15 12:33 49.91702 15.45592 35258 ft 471 kts 129°
2026-04-15 12:33 49.87210 15.53005 35260 ft 470 kts 129°
2026-04-15 12:34 49.82756 15.60334 35254 ft 470 kts 129°
2026-04-15 12:34 49.78279 15.67679 35247 ft 468 kts 129°
2026-04-15 12:35 49.73804 15.74998 35253 ft 466 kts 129°
2026-04-15 12:35 49.69340 15.82279 35246 ft 465 kts 129°
2026-04-15 12:36 49.64915 15.89477 35242 ft 465 kts 130°
2026-04-15 12:36 49.62679 15.93107 34860 ft 469 kts 129°
2026-04-15 12:36 49.60439 15.96738 34507 ft 463 kts 129°
2026-04-15 12:36 49.58223 16.00320 34036 ft 460 kts 129°
2026-04-15 12:37 49.56024 16.03874 33563 ft 456 kts 129°
2026-04-15 12:37 49.53843 16.07392 33128 ft 452 kts 130°
2026-04-15 12:37 49.51684 16.10872 32705 ft 447 kts 130°
2026-04-15 12:37 49.49546 16.14315 32289 ft 443 kts 130°
2026-04-15 12:38 49.47428 16.17720 31879 ft 438 kts 130°
2026-04-15 12:38 49.45329 16.21089 31473 ft 434 kts 131°
2026-04-15 12:38 49.43249 16.24425 31077 ft 430 kts 131°
2026-04-15 12:38 49.41187 16.27727 30682 ft 426 kts 131°
2026-04-15 12:39 49.39138 16.31004 30290 ft 422 kts 132°
2026-04-15 12:39 49.37111 16.34241 29829 ft 418 kts 132°
2026-04-15 12:39 49.35113 16.37430 29432 ft 413 kts 132°
2026-04-15 12:39 49.33132 16.40587 29013 ft 408 kts 133°
2026-04-15 12:40 49.31169 16.43711 28618 ft 404 kts 133°
2026-04-15 12:40 49.29230 16.46793 28208 ft 400 kts 133°
2026-04-15 12:40 49.27309 16.49844 27814 ft 396 kts 133°
2026-04-15 12:40 49.25405 16.52865 27415 ft 392 kts 134°
2026-04-15 12:41 49.23513 16.55861 27012 ft 389 kts 134°
2026-04-15 12:41 49.21661 16.58793 26624 ft 386 kts 134°
2026-04-15 12:41 49.19804 16.61726 26242 ft 383 kts 134°
2026-04-15 12:41 49.17958 16.64661 25834 ft 381 kts 131°
2026-04-15 12:42 49.16565 16.68072 25413 ft 379 kts 110°
2026-04-15 12:42 49.16025 16.71994 24969 ft 378 kts 91°
2026-04-15 12:42 49.16316 16.75982 24404 ft 379 kts 73°
2026-04-15 12:42 49.17081 16.79839 23873 ft 381 kts 71°
2026-04-15 12:43 49.17923 16.83734 22981 ft 390 kts 70°
2026-04-15 12:43 49.18788 16.87662 22477 ft 388 kts 70°
2026-04-15 12:43 49.19630 16.91522 22025 ft 385 kts 71°
2026-04-15 12:43 49.20462 16.95398 21609 ft 382 kts 71°
2026-04-15 12:44 49.21277 16.99243 21189 ft 378 kts 71°
2026-04-15 12:44 49.22076 17.03057 20792 ft 375 kts 71°
2026-04-15 12:44 49.22870 17.06864 20195 ft 377 kts 71°
2026-04-15 12:44 49.23662 17.10677 19782 ft 375 kts 72°
2026-04-15 12:45 49.24444 17.14453 19378 ft 372 kts 72°
2026-04-15 12:45 49.25221 17.18216 18989 ft 368 kts 72°
2026-04-15 12:45 49.25989 17.21940 18616 ft 365 kts 72°
2026-04-15 12:45 49.26750 17.25635 18206 ft 362 kts 72°
2026-04-15 12:46 49.27504 17.29308 17799 ft 359 kts 72°
2026-04-15 12:46 49.28249 17.32937 17429 ft 355 kts 72°
2026-04-15 12:46 49.28985 17.36533 17064 ft 351 kts 72°
2026-04-15 12:46 49.29712 17.40087 16695 ft 348 kts 71°
2026-04-15 12:47 49.30431 17.43608 16336 ft 345 kts 71°
2026-04-15 12:47 49.31143 17.47099 15981 ft 342 kts 71°
2026-04-15 12:47 49.31847 17.50562 15629 ft 339 kts 71°
2026-04-15 12:47 49.32600 17.53968 15279 ft 336 kts 66°
2026-04-15 12:48 49.33596 17.57184 14931 ft 332 kts 61°
2026-04-15 12:48 49.34682 17.60299 14594 ft 330 kts 59°
2026-04-15 12:48 49.35409 17.62345 14363 ft 329 kts 59°
2026-04-15 12:48 49.36844 17.66426 13884 ft 327 kts 60°
2026-04-15 12:49 49.37905 17.69501 13508 ft 325 kts 60°
2026-04-15 12:49 49.38953 17.72574 13138 ft 323 kts 61°
2026-04-15 12:49 49.39627 17.74568 12914 ft 322 kts 61°
2026-04-15 12:49 49.40654 17.77618 12561 ft 320 kts 61°
2026-04-15 12:50 49.41670 17.80644 12210 ft 318 kts 61°
2026-04-15 12:50 49.42676 17.83652 11877 ft 315 kts 61°
2026-04-15 12:50 49.43676 17.86640 11537 ft 314 kts 62°
2026-04-15 12:50 49.44669 17.89613 11208 ft 312 kts 62°
2026-04-15 12:51 49.45656 17.92577 10866 ft 311 kts 62°
2026-04-15 12:51 49.46636 17.95522 10591 ft 307 kts 62°
2026-04-15 12:51 49.47731 17.98267 10446 ft 297 kts 48°
2026-04-15 12:51 49.49118 18.00541 10334 ft 287 kts 44°
2026-04-15 12:52 49.50493 18.02681 10126 ft 282 kts 44°
2026-04-15 12:52 49.51885 18.04851 9823 ft 281 kts 44°
2026-04-15 12:52 49.53233 18.06972 9535 ft 279 kts 44°
2026-04-15 12:52 49.54588 18.09125 9241 ft 278 kts 45°
2026-04-15 12:53 49.55924 18.11261 8954 ft 276 kts 45°
2026-04-15 12:53 49.57254 18.13397 8669 ft 275 kts 45°
2026-04-15 12:53 49.58569 18.15514 8388 ft 273 kts 45°
2026-04-15 12:53 49.59880 18.17630 8102 ft 272 kts 45°
2026-04-15 12:54 49.61189 18.19740 7818 ft 271 kts 45°
2026-04-15 12:54 49.62474 18.21815 7535 ft 270 kts 45°
2026-04-15 12:54 49.63769 18.23909 7257 ft 269 kts 45°
2026-04-15 12:54 49.65056 18.25993 6976 ft 268 kts 46°
2026-04-15 12:55 49.66341 18.28076 6694 ft 267 kts 46°
2026-04-15 12:55 49.67620 18.30150 6390 ft 266 kts 46°
2026-04-15 12:55 49.68896 18.32220 6096 ft 265 kts 46°
2026-04-15 12:55 49.70160 18.34273 5816 ft 263 kts 46°
2026-04-15 12:56 49.71425 18.36328 5451 ft 264 kts 46°
2026-04-15 12:56 49.72684 18.38376 5251 ft 260 kts 46°
2026-04-15 12:56 49.73967 18.40272 5091 ft 253 kts 33°
2026-04-15 12:56 49.75582 18.41122 5011 ft 240 kts
2026-04-15 12:57 49.77167 18.40717 4922 ft 225 kts 338°
2026-04-15 12:57 49.78456 18.39499 4810 ft 212 kts 320°
2026-04-15 12:57 49.79506 18.38006 4723 ft 198 kts 316°
2026-04-15 12:57 49.80454 18.36593 4629 ft 185 kts 316°
2026-04-15 12:58 49.81371 18.35229 4308 ft 186 kts 316°
2026-04-15 12:58 49.82000 18.33578 4165 ft 173 kts 274°
2026-04-15 12:58 49.81651 18.31869 4109 ft 172 kts 237°
2026-04-15 12:58 49.80989 18.30235 3890 ft 183 kts 237°
2026-04-15 12:59 49.79465 18.27090 3394 ft 181 kts 230°
2026-04-15 12:59 49.78633 18.25661 3143 ft 175 kts 227°
2026-04-15 12:59 49.77816 18.24331 2935 ft 169 kts 227°
2026-04-15 13:00 49.77007 18.23025 2686 ft 166 kts 226°
2026-04-15 13:00 49.76223 18.21756 2504 ft 160 kts 226°
2026-04-15 13:00 49.75451 18.20509 2254 ft 159 kts 226°
2026-04-15 13:00 49.74696 18.19291 2019 ft 155 kts 226°
2026-04-15 13:01 49.73956 18.18093 1810 ft 154 kts 227°
2026-04-15 13:01 49.73215 18.16890 1611 ft 154 kts 226°
2026-04-15 13:01 49.72464 18.15710 1417 ft 155 kts 225°
2026-04-15 13:01 49.71728 18.14484 1175 ft 155 kts 227°
2026-04-15 13:02 49.70982 18.13288 939 ft 154 kts 225°
2026-04-15 13:02 49.70268 18.12130 828 ft 143 kts 225°
2026-04-15 13:02 49.69650 18.11136 830 ft 107 kts 226°
2026-04-15 13:02 49.69269 18.10520 833 ft 49 kts 225°
2026-04-15 13:03 49.69125 18.10284 829 ft 28 kts 227°
2026-04-15 13:03 49.69020 18.10114 831 ft 13 kts 226°
2026-04-15 13:03 49.68951 18.10050 835 ft 12 kts 169°
2026-04-15 13:03 49.68888 18.10130 832 ft 12 kts 137°
2026-04-15 13:04 49.68830 18.10214 836 ft 11 kts 136°
2026-04-15 13:04 49.68775 18.10299 830 ft 11 kts 135°
2026-04-15 13:04 49.68710 18.10309 835 ft 11 kts 220°
2026-04-15 13:04 49.68658 18.10228 835 ft 10 kts 226°
2026-04-15 13:05 49.68609 18.10149 832 ft 10 kts 226°
2026-04-15 13:05 49.68561 18.10072 831 ft 10 kts 226°
2026-04-15 13:05 49.68515 18.09997 839 ft 10 kts 226°
2026-04-15 13:05 49.68469 18.09925 837 ft 9 kts 226°
2026-04-15 13:06 49.68423 18.09862 841 ft 9 kts 196°
2026-04-15 13:06 49.68375 18.09906 838 ft 7 kts 137°
2026-04-15 13:06 49.68334 18.09910 839 ft 7 kts 219°
2026-04-15 13:06 49.68322 18.09891 844 ft 2 kts 224°
2026-04-15 13:07 49.68315 18.09881 837 ft 1 kts 224°